Location: York
(31.8935°S, 116.7682°E)
Time: 15:16:34
(UTC+08:00)

S-56A Canister/Altair - Visible Passes

Search period start: 15 June 2021 00:00
Search period end: 25 June 2021 00:00
Orbit: 632 x 2500 km, 38.9° (Epoch: 14 June)

Date Brightness Start Highest point End Pass type
(mag) Time Alt. Az. Time Alt. Az. Time Alt. Az.
15 Jun 10.0 17:56:08 10° WNW 18:11:32 80° SSW 18:22:31 17° ESE visible
15 Jun 9.5 20:04:53 10° W 20:19:10 62° S 20:19:56 61° SSE visible
15 Jun 11.0 22:13:31 10° WSW 22:17:22 22° WSW 22:17:22 22° WSW visible
16 Jun 10.1 17:22:29 10° WNW 17:37:51 84° SSW 17:51:09 10° ESE visible
16 Jun 9.6 19:30:53 10° W 19:45:37 63° S 19:49:00 50° SE visible
16 Jun 10.5 21:39:39 10° WSW 21:46:25 34° WSW 21:46:25 34° WSW visible
17 Jun 9.9 18:56:57 10° W 19:12:00 65° S 19:18:04 36° ESE visible
17 Jun 10.0 21:05:45 10° WSW 21:15:30 49° SW 21:15:30 49° SW visible
18 Jun 10.0 18:23:04 10° W 18:38:19 66° S 18:47:10 24° ESE visible
18 Jun 9.6 20:31:50 10° WSW 20:44:36 65° SSW 20:44:36 65° SSW visible
18 Jun 11.3 22:39:57 10° WSW 22:42:01 16° WSW 22:42:01 16° WSW visible
19 Jun 10.1 17:49:17 10° W 18:04:34 68° S 18:16:17 15° ESE visible
19 Jun 9.4 19:57:55 10° WSW 20:12:38 69° S 20:13:43 66° SE visible
19 Jun 10.9 22:06:05 10° WSW 22:11:09 26° WSW 22:11:09 26° WSW visible
20 Jun 10.2 17:15:35 10° W 17:30:46 70° SSW 17:44:26 10° ESE visible
20 Jun 9.6 19:24:02 10° WSW 19:39:03 67° S 19:42:53 50° ESE visible
20 Jun 10.3 21:32:13 10° WSW 21:40:19 40° WSW 21:40:19 40° WSW visible
21 Jun 9.8 18:50:10 10° WSW 19:05:24 66° S 19:12:06 34° ESE visible
21 Jun 9.8 20:58:21 10° WSW 21:09:32 60° WSW 21:09:32 60° WSW visible
22 Jun 10.0 18:16:22 10° WSW 18:31:39 66° S 18:41:22 22° E visible
22 Jun 9.4 20:24:30 10° WSW 20:38:49 86° WSW 20:38:49 86° WSW visible
22 Jun 11.2 22:32:55 10° WSW 22:36:15 19° W 22:36:15 19° W visible
23 Jun 10.1 17:42:38 10° W 17:57:51 66° S 18:10:43 12° E visible
23 Jun 9.4 19:50:40 10° WSW 20:05:47 85° SSE 20:08:10 67° E visible
23 Jun 10.7 21:58:52 10° WSW 22:05:37 30° W 22:05:37 30° W visible
24 Jun 9.7 19:16:53 10° WSW 19:32:14 81° SSE 19:37:37 44° ENE visible
24 Jun 10.2 21:24:54 10° WSW 21:35:05 44° WNW 21:35:05 44° WNW visible
